Regional Weather Roundup
Issued by NWS

Home | Current Version | Previous Version | Graphics & Text | Print | Product List | Glossary On
Versions: 1 2 3 4 5 6 7 8 9 10 11 12 13 14 15 16 17 18 19 20 21 22 23 24 25 26 27 28 29 30 31 32 33 34 35 36 37 38 39 40 41 42 43 44 45 46 47 48 49 50
744
ASUS43 KFSD 251810
RWRSD

WEATHER ROUNDUP FOR SOUTH DAKOTA
NATIONAL WEATHER SERVICE SIOUX FALLS SD
100 PM CDT THU AUG 25 2016

NOTE: "FAIR" INDICATES FEW OR NO CLOUDS BELOW 12,000 FEET WITH NO
SIGNIFICANT WEATHER AND/OR OBSTRUCTIONS TO VISIBILITY.


SDZ001>005-009-010-012>017-251900-
NORTHWEST AND NORTH CENTRAL SOUTH DAKOTA

CITY           SKY/WX    TMP DP  RH WIND       PRES   REMARKS
BUFFALO          N/A     64  43  46 N14G20    30.19F
FAITH            N/A     62  46  55 NW16G22   30.24S
MOBRIDGE       CLOUDY    64  46  52 NW14      30.17R
$$

SDZ012>016-024>037-041>051-057-063-072>074-251900-
SOUTHWEST AND SOUTH CENTRAL SOUTH DAKOTA

CITY           SKY/WX    TMP DP  RH WIND       PRES   REMARKS
RAPID CTY ARPT CLOUDY    64  44  48 N8        30.28F
PIERRE         PTSUNNY   69  47  45 W16G24    30.20F
CUSTER         PTSUNNY   56  43  61 SE6       30.31F
ELLSWORTH AFB  MOSUNNY   63  43  48 VRB7      30.27
PHILIP         MOSUNNY   66  46  48 NW16      30.24F
PINE RIDGE     CLOUDY    58  49  72 CALM      30.30F
WINNER         FAIR      70  49  47 NW14      30.24S
$$

SDZ004>011-016>023-039-040-251900-
NORTHEAST SOUTH DAKOTA

CITY           SKY/WX    TMP DP  RH WIND       PRES   REMARKS
ABERDEEN       CLOUDY    66  49  54 NW17      30.14S
WATERTOWN      PTSUNNY   65  51  60 W14       30.14R
BROOKINGS      PTSUNNY   65  53  65 NW12      30.14F
SISSETON         N/A     66  52  60 NW18G26   30.09S
$$

SDZ017-020-022-023-036>040-048>070-251900-
SOUTHEAST SOUTH DAKOTA

CITY           SKY/WX    TMP DP  RH WIND       PRES   REMARKS
SIOUX FALLS    PTSUNNY   70  54  56 W12       30.16S
HURON          SUNNY     69  50  50 NW14      30.16S
CHAMBERLAIN    SUNNY     71  51  49 NW14      30.21F
MITCHELL       SUNNY     69  53  56 NW13      30.18F
YANKTON        MOSUNNY   70  52  52 NW10      30.17F
$$

ABBREVIATIONS USED IN REMARKS
   TC - TEMPERATURE IN CELSIUS
  WCI - WIND CHILL INDEX
   HX - HEAT INDEX
  VSB - VISIBILITY





USA.gov is the U.S. government's official web portal to all federal, state and local government web resources and services.